CORVUS BC3

Last updated on Sat Jun 15 2024 00:03:35 GMT+0000 (Coordinated Universal Time)

1 43118U 18004H 24166.52999162 .10534506 24843-5 29378-3 0 9994 2 43118 97.2591 254.2539 0014872 269.1542 90.8056 16.44117878358543
UTC large
Height (km)
Speed (km/s)
/
Latitude / Longitude
Inclination (degrees)
Orbital Period (minutes)
Azimuth
Elevation
Range (km)
Doppler Factor

Next 0 passes for location: London (51.5072 / 0.1276)

Sorry there are no passes over London.